Regional Weather Roundup
Issued by NWS

Home | Current Version | Previous Version | Text Only | Print | Product List | Glossary Off
Versions: 1 2 3 4 5 6 7 8 9 10 11 12 13 14 15 16 17 18 19 20 21 22 23 24 25 26 27 28 29 30 31 32 33 34 35 36 37 38 39 40 41 42 43 44 45 46 47 48 49 50

000
ASUS44 KFWD 200615
RWRTX
NORTH TEXAS HOURLY WEATHER ROUNDUP
NATIONAL WEATHER SERVICE FORT WORTH TX
1200 AM CST MON FEB 20 2017

NOTE: "FAIR" INDICATES FEW OR NO CLOUDS BELOW 12,000 FEET WITH NO
SIGNIFICANT WEATHER AND/OR OBSTRUCTIONS TO VISIBILITY.

TXZ118-119-200700-
DALLAS/FORT WORTH METROPLEX

CITY           SKY/WX    TMP DP  RH WIND       PRES   REMARKS
DFW AIRPORT    CLOUDY    71  65  81 S15       29.85S
6HR MIN TEMP:  70; 6HR MAX TEMP:  75;

DALLAS LOVE    CLOUDY    70  64  81 S13       29.87R
6HR MIN TEMP:  70; 6HR MAX TEMP:  75;

FTW MEACHAM    TSTM      60  54  80 W25G38    29.92R
6HR MIN TEMP:  60; 6HR MAX TEMP:  74; 6HR PCP:  0.09;

DAL-EXECUTIVE  CLOUDY    70  65  84 S14G23    29.87R
6HR MIN TEMP:  69; 6HR MAX TEMP:  71;

FTW-ALLIANCE   TSTM      58  55  90 W18G37    29.92R FOG
6HR MIN TEMP:  60; 6HR MAX TEMP:  73; 6HR PCP: TRACE;

FTW-NAS-JRB    TSTM      59  57  93 NW17      29.93R FOG
6HR MIN TEMP:  59; 6HR MAX TEMP:  74;

FTW-SPINKS     CLOUDY    62  56  79 W28G35    29.95R
6HR MIN TEMP:  62; 6HR MAX TEMP:  74;

ARLINGTON      CLOUDY    69  64  84 S9        29.88R
6HR MIN TEMP:  69; 6HR MAX TEMP:  73;

GRAND PRAIRIE  MOCLDY    69  63  81 S8        29.89R
6HR MIN TEMP:  69; 6HR MAX TEMP:  73;

ADDISON        CLOUDY    69  64  83 S12G18    29.89R
6HR MIN TEMP:  69; 6HR MAX TEMP:  73;

MESQUITE       CLOUDY    69  64  85 SE13G18   29.89R
6HR MIN TEMP:  69; 6HR MAX TEMP:  72;

LANCASTER      CLOUDY    68  64  84 S9        29.89R
6HR MIN TEMP:  68; 6HR MAX TEMP:  72;

$$

TXZ091>094-102>105-117-120-121-131>134-200700-
NORTH CENTRAL TEXAS

CITY           SKY/WX    TMP DP  RH WIND       PRES   REMARKS
SHRMAN/DENISON CLOUDY    69  64  84 SE15G22   29.87S
6HR MIN TEMP:  68; 6HR MAX TEMP:  71;

GAINESVILLE    HVY RAIN  61  58  91 W12       29.89R
6HR MIN TEMP:  61; 6HR MAX TEMP:  69; 6HR PCP:  0.07;

BOWIE          RAIN      58  58  98 W9        29.92R
6HR MIN TEMP:  58; 6HR MAX TEMP:  70; 6HR PCP:  0.34;

BRIDGEPORT     RAIN      57  56  97 W10G20    29.95R
6HR MIN TEMP:  57; 6HR MAX TEMP:  70; 6HR PCP:  0.21;

DECATUR        HVY RAIN  57  55  94 W20G26    29.92R
6HR MIN TEMP:  57; 6HR MAX TEMP:  70; 6HR PCP:  0.20;

DENTON         LGT RAIN  62  59  90 W16G23    29.87R
6HR MIN TEMP:  62; 6HR MAX TEMP:  72; 6HR PCP: TRACE;

MCKINNEY       CLOUDY    68  65  90 S15       29.87R
6HR MIN TEMP:  67; 6HR MAX TEMP:  72;

BONHAM         CLOUDY    68  63  83 SE14G23   29.87F
GREENVILLE     CLOUDY    70  63  78 SE14      29.89R
ROCKWALL       CLOUDY    69  65  87 S9G23     29.88R
6HR MIN TEMP:  69; 6HR MAX TEMP:  72;

TERRELL        CLOUDY    69  63  81 S13       29.89R
6HR MIN TEMP:  69; 6HR MAX TEMP:  73;

WAXAHACHIE     CLOUDY    67  66  95 SE7       29.90R
6HR MIN TEMP:  67; 6HR MAX TEMP:  72;

CLEBURNE       HVY RAIN  59  59 100 W22G32    29.96R
GRANBURY       RAIN      60  58  90 W10       29.98R
6HR MIN TEMP:  60; 6HR MAX TEMP:  76; 6HR PCP:  0.13;

$$

TXZ083>090-098>101-113>116-127>130-139>142-154-155-200700-
WESTERN NORTH TEXAS

CITY           SKY/WX    TMP DP  RH WIND       PRES   REMARKS
WICHITA FALLS  LGT RAIN  56  54  93 S12       29.90R
6HR MIN TEMP:  55; 6HR MAX TEMP:  69; 6HR PCP:  0.53;

WF-KICKAPOO    RAIN      57  54  88 S9        29.94R
6HR MIN TEMP:  57; 6HR MAX TEMP:  70; 6HR PCP:  0.04;

VERNON         CLOUDY    58  52  80 SE7       29.86R
6HR MIN TEMP:  58; 6HR MAX TEMP:  67; 6HR PCP:  0.20;

ABILENE        LGT RAIN  55  52  89 SE17      29.90F
6HR MIN TEMP:  54; 6HR MAX TEMP:  64; 6HR PCP:  0.33;

ABILENE-DYESS  LGT RAIN  55  54  94 SW8       29.89R
6HR MIN TEMP:  55; 6HR MAX TEMP:  65; 6HR PCP:  0.12;

GRAHAM         LGT RAIN  55  55 100 CALM      29.94R
BRECKENRIDGE   LGT RAIN  57  55  95 S8        29.96R
6HR MIN TEMP:  57; 6HR MAX TEMP:  65; 6HR PCP:  0.07;

CISCO          RAIN      54  54 100 SW7       29.98R
RANGER         RAIN      54  54 100 W5        29.97R
MINERAL WELLS  RAIN      57  54  89 NW8       29.93S FOG
6HR MIN TEMP:  57; 6HR MAX TEMP:  71; 6HR PCP:  0.45;

STEPHENVILLE   CLOUDY    57  53  86 W8        29.99R
6HR MIN TEMP:  57; 6HR MAX TEMP:  73;

COMANCHE       TSTM      56  56 100 W6        30.00R
6HR MIN TEMP:  56; 6HR MAX TEMP:  74;

BROWNWOOD      LGT RAIN  55  55 100 CALM      29.99S
COLEMAN        CLOUDY    55  54  95 SE6       29.99R
6HR MIN TEMP:  55; 6HR MAX TEMP:  70; 6HR PCP:  0.74;

$$

TXZ143>147-156>162-174-175-200700-
CENTRAL TEXAS

CITY           SKY/WX    TMP DP  RH WIND       PRES   REMARKS
WACO           CLOUDY    70  66  87 SE20G28   29.87S THUNDER
6HR MIN TEMP:  70; 6HR MAX TEMP:  75; 6HR PCP: TRACE;

WACO-MCGREGOR  LGT RAIN  68  64  88 NW30G39   29.93R SQUALL
6HR MIN TEMP:  70; 6HR MAX TEMP:  74; 6HR PCP:  0.02;

HILLSBORO      CLOUDY    69  65  87 S12       29.89R
6HR MIN TEMP:  68; 6HR MAX TEMP:  74;

CORSICANA      CLOUDY    69  65  86 SE15      29.90S
6HR MIN TEMP:  68; 6HR MAX TEMP:  73;

MEXIA          CLOUDY    70  64  83 SE13G21   29.89S
6HR MIN TEMP:  69; 6HR MAX TEMP:  73;

HEARNE         CLOUDY    70  67  90 SE6       29.92R
6HR MIN TEMP:  70; 6HR MAX TEMP:  76;

CAMERON        CLOUDY    71  67  85 SE7       29.89S
6HR MIN TEMP:  71; 6HR MAX TEMP:  76;

TEMPLE         TSTM      64  61  88 W18G29    29.95R
6HR MIN TEMP:  69; 6HR MAX TEMP:  75; 6HR PCP:  0.01;

KILLEEN        TSTM      57  55  94 NW22      29.90F FOG
                                      6HR PCP:  0.20;

KILLEEN-SKYLRK TSTM      57  55  94 VRB3      29.97R FOG
6HR MIN TEMP:  58; 6HR MAX TEMP:  75; 6HR PCP:  0.05;

FORT HOOD      HVY RAIN  57  55  94 N13G21    29.92R VSB 1
6HR MIN TEMP:  57; 6HR MAX TEMP:  73; 6HR PCP:  0.16;

GATESVILLE     RAIN      57  55  94 NW14G26   29.97R
HAMILTON       TSTM      57  57 100 NW14      29.99R
6HR MIN TEMP:  56; 6HR MAX TEMP:  75; 6HR PCP:  0.49;

LAMPASAS       TSTM      56  55  96 NW10G20   29.95F
6HR MIN TEMP:  56; 6HR MAX TEMP:  76; 6HR PCP:  0.52;

$$

TXZ095>097-106>112-122>126-135>138-148>153-164>167-200700-
EAST TEXAS

CITY           SKY/WX    TMP DP  RH WIND       PRES   REMARKS
PARIS          CLOUDY    68  63  83 SE17      29.90F
6HR MIN TEMP:  66; 6HR MAX TEMP:  70;

SULPHUR SPRNGS CLOUDY    70  64  82 SE12G23   29.91F
6HR MIN TEMP:  69; 6HR MAX TEMP:  73;

MOUNT PLEASANT CLOUDY    70  63  78 SE10G18   29.93S
6HR MIN TEMP:  68; 6HR MAX TEMP:  73;

GILMER         CLOUDY    69  64  84 SE12G18   29.93R
6HR MIN TEMP:  68; 6HR MAX TEMP:  72;

MINEOLA        CLOUDY    70  64  83 S8G18     29.90S
TYLER          CLOUDY    70  64  81 SE16G26   29.90S
6HR MIN TEMP:  69; 6HR MAX TEMP:  72;

LONGVIEW       CLOUDY    70  66  87 SE12      29.94R
6HR MIN TEMP:  70; 6HR MAX TEMP:  75;

MARSHALL       CLOUDY    67  63  85 SE3       29.98R
6HR MIN TEMP:  67; 6HR MAX TEMP:  75;

ATHENS         CLOUDY    68  63  83 SE9G16    29.90S
PALESTINE      CLOUDY    69  66  88 SE7       29.92S
JACKSONVILLE   CLOUDY    68  65  90 SE10G17   29.95F
HENDERSON      CLOUDY    69  64  85 SE12      29.95S
6HR MIN TEMP:  69; 6HR MAX TEMP:  73;

CENTER         CLOUDY    73  68  87 S3        29.98R
6HR MIN TEMP:  72; 6HR MAX TEMP:  78;

NACOGDOCHES    CLOUDY    70  64  83 SE8       29.94S
6HR MIN TEMP:  68; 6HR MAX TEMP:  72;

LUFKIN         CLOUDY    69  65  86 SE6       29.94R
6HR MIN TEMP:  68; 6HR MAX TEMP:  73;

$$

SUPPLEMENTAL OBSERVATIONS (CENTRAL)

CITY           SKY/WX    TMP DP  RH WIND       PRES   REMARKS
DENISON DAM      N/A     70  64  83 SE12        N/A



USA.gov is the U.S. government's official web portal to all federal, state and local government web resources and services.